Overview Statistics Trail Chart Weather Telemetry Raw packets
 

This is the latest recevied weather packets stored in our database for station/object N5JXS. If no packets are shown the sender has not sent any weather packets the latest 10 day(s).

<< 100 101 102 103 104 105 106 >>
Time Temp. Humidity Pressure Rain* Wind** Luminosity Snow
1787872873 24.44° C 34% 1029.7 hPa 0 mm - 98 W/m² -
1787872569 24.44° C 33% 1029.7 hPa 0 mm - 127 W/m² -
1787872265 23.89° C 36% 1029.5 hPa 0 mm - 124 W/m² -
1787871964 23.33° C 40% 1029.8 hPa 0 mm - 186 W/m² -
1787871660 22.78° C 37% 1030.2 hPa 0 mm - 127 W/m² -
1787871355 22.78° C 39% 1030.6 hPa 0 mm - 52 W/m² -
1787871050 23.33° C 42% 1030.7 hPa 0 mm - 29 W/m² -
1787870749 23.33° C 39% 1030.6 hPa 0 mm - 20 W/m² -
1787870445 23.33° C 38% 1030.7 hPa 0 mm - 17 W/m² -
1787870145 23.89° C 38% 1030.3 hPa 0 mm - 19 W/m² -
1787869839 23.89° C 37% 1030.3 hPa 0 mm - 25 W/m² -
1787869538 23.89° C 38% 1030.3 hPa 0 mm - 32 W/m² -
1787869233 24.44° C 36% 1030.3 hPa 0 mm - 42 W/m² -
1787868927 24.44° C 36% 1030.5 hPa 0 mm - 47 W/m² -
1787868627 24.44° C 36% 1030.5 hPa 0 mm - 49 W/m² -
1787868325 25° C 36% 1030.7 hPa 0 mm - 49 W/m² -
1787868020 25° C 36% 1030.6 hPa 0 mm - 65 W/m² -
1787867716 25.56° C 33% 1030.5 hPa 0 mm - 98 W/m² -
1787867416 26.11° C 32% 1030.3 hPa 0 mm - 130 W/m² -
1787867111 26.67° C 32% 1030.6 hPa 0 mm - 157 W/m² -
1787866806 27.78° C 30% 1030.6 hPa 0 mm - 232 W/m² -
1787866501 27.78° C 29% 1030.2 hPa 0 mm - 685 W/m² -
1787866199 27.78° C 29% 1030.3 hPa 0 mm - 657 W/m² -
1787865894 27.78° C 32% 1030.2 hPa 0 mm - 553 W/m² -
1787865590 27.22° C 30% 1030.5 hPa 0 mm - 551 W/m² -

* Rain latest hour (hover to see other rain measurements)
** Current wind speed in m/s (hover to see current wind gust speed)